Dewpoint
51 52 51 50 47 51 53 54 58 56 52 52 52 50 46 46 45 43 42 44 44 44 38 35 35 37 38 38 40 40 21 17 20 25 25 32 30 32 32 31 30 30 32 34 34
52 52 49 48 47 49 52 55 57 56 53 52 52 49 46 46 42 43 47 43 43 40 33 30 30 33 32 35 35 31 19 19 30 31 29 30 30 30 28 27 27 28 29 29 30
51 50 51 48 47 47 50 53 56 58 55 52 51 48 47 42 37 42 44 41 40 35 31 31 30 28 28 31 28 34 22 31 31 31 29 28 26 26 24 22 23 22 22 24 28
51 51 49 49 48 47 46 52 55 57 55 53 51 48 44 37 32 43 44 40 40 33 32 31 29 25 24 22 26 22 29 28 27 27 26 24 22 20 19 19 18 19 21 25 26
51 50 50 48 45 46 47 50 57 55 55 53 50 47 40 39 39 39 36 36 34 32 29 28 25 24 21 22 22 20 22 24 25 26 25 23 20 17 16 17 18 18 19 22 24
51 50 50 47 46 44 49 52 57 55 54 51 50 44 42 38 43 36 33 33 33 31 30 28 26 26 23 22 18 24 23 21 21 21 21 19 15 18 11 14 16 18 20 20 21
49 50 48 47 47 47 48 53 56 55 54 52 46 41 40 40 39 34 34 34 34 32 30 31 30 24 23 23 26 24 15 13 16 20 21 24 20 20 20 19 19 19 19 21 22
48 48 47 47 47 47 50 54 54 54 51 47 41 38 35 40 36 33 33 34 36 36 36 35 32 30 27 27 21 18 17 8 15 22 25 24 12 16 18 21 20 21 22 23 25
47 48 48 50 48 50 53 55 53 52 48 43 34 35 34 37 32 32 34 33 34 35 35 34 34 30 28 22 20 19 12 16 17 24 23 23 18 20 22 23 25 26 26 26 27
52 52 52 53 53 53 53 51 50 44 36 33 32 29 33 31 31 31 34 35 33 33 32 32 32 28 27 25 13 19 19 19 18 21 23 23 22 24 27 27 27 27 27 28 31
51 51 51 50 49 49 48 45 36 29 31 29 29 29 30 31 33 32 33 32 32 30 27 31 31 26 25 25 24 25 23 21 21 23 25 24 25 26 27 28 30 31 32 32 33
50 50 49 48 49 48 45 38 40 35 31 32 31 31 33 32 28 32 33 31 30 28 30 27 26 27 28 29 27 27 26 25 24 26 25 25 25 27 28 30 33 34 34 36 37
49 50 49 49 46 44 43 43 46 39 31 33 35 33 34 35 32 32 34 34 31 30 30 29 26 28 28 29 28 27 26 25 26 27 27 27 26 27 26 32 33 37 38 39 41
49 48 49 47 41 44 41 44 44 39 32 28 32 34 34 36 33 38 39 35 33 31 31 30 30 29 30 29 29 26 27 27 27 27 23 27 22 25 29 30 32 37 37 41 43
48 48 46 46 42 39 42 44 42 32 16 27 32 37 36 34 35 35 40 36 33 32 32 29 29 31 31 30 30 28 29 31 32 29 29 26 26 24 32 32 33 35 36 41 44
47 46 45 44 42 42 44 43 32 26 19 27 32 32 33 34 35 37 38 39 38 34 32 32 34 33 32 32 32 32 32 32 32 30 23 24 26 24 30 30 31 34 38 38 40
45 45 43 43 38 44 41 32 26 23 23 27 30 33 32 31 34 36 35 33 33 30 30 31 31 33 35 32 35 34 31 25 23 24 21 27 27 29 33 34 33 33 36 38 39
44 43 43 41 44 42 34 29 21 23 24 28 30 31 29 30 32 35 34 31 35 33 31 28 24 31 35 32 33 34 33 26 20 19 21 28 26 30 36 37 35 35 36 38 37
44 42 41 40 43 38 29 27 26 26 28 28 30 27 26 28 30 30 32 32 31 35 29 28 28 30 33 34 35 31 28 33 29 26 24 25 30 35 37 37 37 36 34 33 34
42 40 39 41 41 35 33 28 28 28 30 29 24 26 23 25 26 27 27 29 31 34 33 31 28 30 32 35 35 34 35 27 29 21 19 21 26 28 32 34 36 34 30 28 27
39 33 39 40 39 33 30 29 30 31 31 29 27 25 25 26 26 26 26 27 32 33 33 33 31 28 29 30 27 30 26 28 27 26 21 19 25 34 33 35 35 34 28 20 22
36 28 39 39 31 31 29 31 33 32 33 32 31 29 27 27 27 25 24 26 32 33 30 32 30 27 23 27 28 28 27 25 25 22 24 23 24 33 34 35 35 31 22 20 22
34 34 39 37 24 27 29 29 31 31 31 30 29 30 29 27 24 26 27 30 33 33 30 31 28 23 15 20 26 26 27 25 27 27 25 20 19 32 34 34 33 30 24 23 22
32 25 33 33 32 26 25 26 27 30 32 31 30 29 27 26 27 26 26 29 32 32 34 32 29 24 17 14 20 20 24 25 26 26 23 21 18 24 29 31 32 30 26 22 23
33 31 32 28 27 29 28 26 25 24 31 31 29 29 27 22 24 25 27 27 29 31 34 31 27 26 27 26 25 24 23 22 24 23 21 19 21 21 24 28 30 31 29 23 23
32 31 32 30 30 28 28 26 23 25 27 27 27 29 30 25 21 20 25 26 24 29 28 29 26 25 23 21 24 24 23 23 23 23 22 22 22 24 25 29 31 31 30 28 25
37 36 32 29 28 26 23 25 26 30 29 29 28 28 27 26 28 29 29 29 28 28 27 27 26 23 17 19 17 8 8 14 17 20 20 19 20 26 27 29 30 31 31 30 27
Wind_Speed
10 15 5 8 8 9 9 4 5 23 18 16 15 11 10 9 9 15 21 9 7 7 2 4 7 7 6 5 4 1 4 6 3 4 1 2 1 1 2 8 5 5 8 8 12
13 11 8 8 10 9 7 10 3 20 19 17 14 11 12 11 25 28 14 11 9 7 6 6 8 6 5 3 3 3 4 4 1 2 4 4 6 5 6 10 13 14 16 14 11
11 12 7 6 9 8 10 5 10 21 16 13 13 11 5 1 10 11 12 13 9 4 9 5 6 4 5 3 3 1 4 2 4 3 4 8 11 11 13 18 18 19 19 16 17
13 14 9 8 10 11 7 3 16 25 20 12 11 7 3 4 5 7 10 11 11 4 4 5 3 3 4 4 2 3 3 3 2 3 5 11 11 13 17 24 22 21 20 20 21
15 13 6 7 7 9 8 5 28 26 21 10 9 7 2 13 8 7 11 5 12 10 8 6 6 3 5 4 3 4 3 5 8 10 14 15 22 20 22 23 21 22 21 22 22
15 10 6 8 5 7 9 9 16 26 23 11 8 2 3 13 3 5 10 12 11 11 12 7 4 5 7 2 2 0 6 11 10 12 10 12 17 5 15 10 13 17 20 21 22
10 8 7 6 4 5 9 10 21 24 19 12 9 19 27 10 2 8 10 7 9 9 13 8 4 1 4 4 2 2 7 9 11 5 4 8 15 16 21 13 13 15 18 19 20
9 5 3 2 4 6 10 12 27 21 19 9 3 9 9 2 2 7 4 9 10 8 8 5 8 8 3 2 1 3 4 5 5 2 1 3 13 3 5 9 18 22 22 23 26
5 3 3 7 10 8 23 29 27 14 11 7 3 10 9 2 4 4 6 4 4 6 8 5 4 4 2 0 3 1 7 7 7 1 4 4 15 7 16 23 26 27 25 24 24
31 34 31 30 14 15 35 32 20 10 4 4 7 9 2 4 2 3 3 5 4 2 1 4 3 3 2 1 5 3 6 6 10 4 10 19 29 25 22 21 24 24 22 20 22
31 32 31 27 23 15 18 14 8 6 17 10 10 21 10 3 1 5 3 2 2 5 3 4 4 4 2 3 3 3 8 13 17 13 11 14 26 29 24 17 15 15 15 19 23
26 21 23 21 11 7 5 6 4 4 18 15 17 14 5 1 3 6 4 3 5 5 4 2 5 3 3 2 1 2 9 12 11 2 9 18 29 28 13 9 14 16 21 25 26
18 15 11 8 6 11 11 8 5 3 8 7 5 5 3 3 3 4 4 1 5 7 8 2 1 2 2 3 5 7 9 7 8 15 16 12 14 4 1 13 12 16 20 20 21
16 15 9 2 6 2 5 8 5 3 6 7 5 4 3 1 3 3 3 4 4 5 4 2 1 4 5 6 5 7 4 10 11 10 7 8 9 3 10 12 17 19 25 24 17
13 9 17 11 6 4 4 8 5 2 5 5 4 3 2 3 1 3 2 2 3 5 2 1 3 3 5 3 6 4 1 11 11 10 12 0 6 4 12 19 28 25 27 23 17
18 11 3 6 5 2 7 5 1 1 5 2 3 2 3 3 2 2 2 1 3 2 4 7 3 4 3 5 10 11 11 11 4 4 5 2 3 3 13 16 21 21 20 18 18
11 17 9 3 2 9 5 2 0 7 1 2 2 2 3 2 1 1 2 2 2 3 5 4 3 3 5 3 2 3 6 4 2 3 4 3 3 5 13 13 10 16 16 16 14
7 5 6 6 4 4 3 3 9 2 1 1 1 1 2 1 2 2 2 3 1 2 4 6 2 5 8 3 2 2 2 4 5 6 12 1 8 5 9 10 8 11 12 12 13
5 3 3 8 4 1 2 10 3 2 1 3 2 1 1 1 2 2 2 2 2 6 4 6 3 1 6 4 3 0 3 4 4 5 6 2 2 4 8 6 7 8 10 12 14
4 2 3 8 3 2 6 5 3 2 2 1 1 3 1 1 2 2 1 2 1 4 2 1 7 3 1 4 9 6 5 3 2 4 4 3 3 4 7 9 5 7 10 12 12
3 1 3 7 2 7 7 5 2 1 2 2 1 2 2 3 3 3 2 1 2 2 3 1 2 1 3 7 3 3 3 4 3 3 4 6 3 11 12 8 5 6 9 9 11
2 0 4 2 4 4 3 3 1 0 1 1 2 2 2 1 3 3 3 2 3 3 2 0 3 8 4 3 1 3 4 3 4 2 5 4 7 13 11 9 7 7 6 2 6
2 3 3 3 5 6 5 3 2 3 2 2 2 1 1 2 3 3 3 2 4 3 2 4 3 9 2 2 2 5 6 3 4 3 8 4 2 6 9 9 8 8 8 5 2
1 1 3 5 4 8 8 6 6 3 3 2 2 2 2 3 3 3 4 2 1 4 3 4 4 10 13 11 3 10 7 7 6 5 4 13 11 8 13 14 12 10 9 8 6
3 2 1 2 1 1 2 8 8 8 6 6 4 4 3 3 3 4 3 4 2 0 2 3 8 10 20 26 23 24 24 18 16 15 9 3 9 12 9 13 13 11 9 9 8
1 2 2 2 3 1 2 7 9 5 8 5 7 9 7 6 7 6 5 5 5 5 3 3 6 6 16 9 7 15 17 18 21 20 21 24 28 17 15 7 10 12 12 11 10
2 1 1 2 2 2 2 3 8 3 6 4 6 5 8 15 12 12 12 11 6 5 5 4 4 5 8 5 15 14 13 20 11 12 15 15 9 3 8 12 15 14 14 13 11
Wind_Direction
151 146 153 109 126 139 147 91 2 146 141 137 132 126 115 116 122 77 52 40 25 11 31 90 81 68 70 72 51 278 226 242 233 215 149 128 246 237 283 280 280 264 270 300 315
160 158 164 131 125 126 137 115 168 147 134 131 134 132 139 122 80 59 28 30 31 20 63 77 87 86 79 72 34 226 232 229 253 230 248 275 278 290 274 257 256 268 275 284 290
156 164 153 149 124 102 78 98 140 131 120 132 136 134 129 328 66 26 19 28 26 42 67 76 85 78 88 86 46 143 250 195 216 245 292 278 270 261 265 266 265 266 270 275 283
142 140 143 130 122 112 101 127 177 134 128 134 132 121 89 327 96 359 1 29 30 54 73 68 81 94 114 139 104 225 225 226 258 242 274 275 291 265 264 263 266 269 270 272 271
122 127 87 112 119 110 106 91 132 122 110 125 136 119 56 74 74 5 39 42 39 58 61 84 86 113 132 131 155 232 240 255 263 268 271 274 268 274 274 261 266 269 272 270 272
111 102 80 115 99 96 100 93 131 122 125 150 130 102 89 82 344 4 56 57 57 73 65 67 89 90 105 117 228 149 271 272 278 270 265 268 274 300 262 266 267 262 264 269 270
104 116 112 117 103 108 123 110 136 125 131 134 139 103 72 89 56 70 61 53 49 60 76 56 101 118 130 131 20 311 297 272 252 260 270 298 272 236 266 272 274 278 273 269 266
78 96 116 172 155 140 140 120 123 124 117 137 155 87 82 4 85 60 72 69 62 59 77 64 85 97 60 121 162 261 255 286 140 210 265 306 281 248 261 276 286 288 284 277 272
24 322 275 222 163 132 127 119 99 112 144 151 71 99 114 292 93 35 33 47 46 58 51 67 71 82 119 245 246 232 283 284 296 172 295 267 293 280 290 288 291 293 286 281 284
67 70 76 83 101 121 98 107 142 106 56 126 97 88 135 114 66 57 37 44 26 360 83 37 51 101 69 337 281 295 305 302 287 328 301 285 278 291 298 300 298 291 289 287 288
73 72 73 67 70 55 122 133 154 78 54 67 85 87 110 124 89 49 9 317 5 47 31 31 77 56 54 44 33 343 298 292 288 296 294 284 293 296 305 306 312 305 300 300 299
72 75 67 64 58 36 84 91 61 111 81 66 80 87 93 139 105 41 356 28 36 55 6 123 82 79 103 104 12 339 312 308 304 322 296 298 297 296 307 323 322 314 311 309 306
61 51 42 60 80 47 72 60 342 327 93 51 46 57 25 39 75 38 2 7 21 31 16 29 69 140 246 247 281 291 270 295 283 311 289 302 288 279 357 327 321 340 338 319 320
47 40 37 80 92 356 43 343 342 283 94 22 15 39 22 77 73 23 28 16 32 2 349 275 134 216 255 274 225 304 234 257 280 321 319 345 296 285 336 328 344 349 345 326 339
44 55 48 54 109 57 328 324 324 245 79 359 20 335 10 38 7 48 17 24 16 326 323 74 204 245 276 266 194 282 213 283 282 268 300 184 257 278 344 335 339 344 335 345 358
46 41 39 43 63 29 315 308 227 45 77 37 343 3 1 41 37 335 340 251 271 271 233 257 203 252 264 283 244 276 304 299 251 251 262 207 275 315 354 332 330 339 347 3 9
53 49 58 36 36 332 306 253 128 61 305 80 63 12 6 338 302 263 297 327 338 349 354 305 213 227 232 295 185 216 308 328 272 233 323 176 246 329 345 348 336 341 348 347 359
54 78 54 54 323 315 294 11 67 35 22 4 21 336 295 290 220 273 315 324 205 302 320 352 300 195 176 238 297 291 324 337 308 331 312 197 311 319 350 17 15 3 345 347 350
328 11 67 355 357 316 307 55 93 149 135 153 158 265 301 255 268 300 262 305 272 209 351 340 294 254 211 211 222 316 317 335 265 247 278 284 231 197 348 358 8 358 344 341 6
336 339 37 335 330 52 61 91 115 191 165 187 254 226 249 287 273 306 282 152 243 219 259 2 291 242 46 192 234 240 335 257 205 314 308 279 281 295 319 329 8 346 329 337 346
346 348 15 345 263 61 68 60 69 234 236 229 281 264 285 328 294 303 317 194 211 142 207 260 245 258 255 207 218 197 213 240 273 236 304 315 281 196 210 217 237 261 297 335 354
2 255 6 334 63 70 92 118 161 152 194 274 275 298 312 294 274 273 282 249 168 168 310 163 302 280 267 125 288 283 268 275 276 223 250 279 273 180 211 224 229 210 234 269 324
19 313 9 316 125 120 137 136 191 186 203 193 224 197 244 263 295 246 269 320 181 206 249 171 237 302 230 149 140 236 201 231 261 294 235 262 298 185 221 233 230 211 209 230 232
27 316 12 51 360 142 149 163 164 203 205 229 252 198 250 254 225 280 267 265 240 236 235 195 246 236 256 287 305 266 235 224 208 256 293 249 280 237 224 227 222 215 209 212 229
27 94 84 356 339 229 153 167 170 183 205 198 199 214 208 233 231 225 240 281 211 279 164 235 270 262 264 269 272 268 266 248 227 233 251 335 263 286 256 226 225 224 210 218 230
46 152 147 91 25 271 259 223 201 190 184 200 214 189 204 235 236 252 210 212 228 181 207 204 274 299 293 273 252 256 256 243 241 246 253 262 276 268 250 224 217 218 217 230 234
119 347 246 130 146 190 246 244 231 204 226 252 206 198 233 250 252 259 256 258 259 230 219 214 251 315 274 309 304 280 255 213 218 214 218 223 240 187 206 222 227 225 223 230 233